User: anonymous   Login
Location: Unspecified
(0.0000°N, 0.0000°E)
Time: 04:16:19
(UTC+00:00)
Language:

KORONAS-FOTON - Orbit

View from above orbital plane
View from above orbital plane
View from above satellite
View from above satellite

Ground track
Ground track

The orbit data is extracted from the following two-line orbital elements,

1 33504U 09003A   15213.05126572  .00001062  00000-0  57701-4 0  9990
2 33504 082.4421 194.1653 0019066 323.3679 036.6247 15.13328410357643
Epoch (UTC): 01 August 2015 01:13:49
Eccentricity: 0.0019066
inclination: 82.4421°
perigee height: 513 km
apogee height: 539 km
right ascension of ascending node: 194.1653°
argument of perigee: 323.3679°
revolutions per day: 15.13328410
mean anomaly at epoch: 36.6247°
orbit number at epoch: 35764

The dashed part of the orbit path shows where the satellite is in the earth's shadow,  

DLR